sat.trackr.live / text

‹ back to catalog

STARLINK-33554

NORAD 62103 · 2024-220R

PAYLOAD ACTIVE UNKNOWN

§ Identity

Operator
Country
US
Launch date
2024-11-25
Launch site
AFETR
Launch vehicle
Mass (kg)
RCS (m²)

Purposes: comms

External: N2YO · Heavens-Above · Gunter

§ Orbital elements

Epoch: 2026-05-24T23:43:43.718016Z

Period
94.27 min
Inclination
42.9975°
Eccentricity
0.0001150
Mean motion
15.27591078 rev/d
Perigee alt
482.2 km
Apogee alt
483.8 km
Semi-major
6,861.2 km
B*
6.2695e-4
RAAN
134.3459°
Arg perigee
292.8058°
Mean anomaly
67.2672°
Rev number
8,462

§ Raw data

STARLINK-335541 62103U 24220R   26144.98870044  .00017036  00000+0  62695-3 0  99962 62103  42.9975 134.3459 0001150 292.8058  67.2672 15.27591078 84625

JSON: /api/v1/satellites/62103 · /tle

For live sub-satellite position, see the globe view (requires WebGL).

§ Visibility from observer

Set your observer location to see the next 7 days of passes ≥ 10°. The values pass through the URL so the page stays shareable.

No JS? Fill the form by hand. The geolocation button needs JavaScript.